Location: Chèvreville
(49.1099°N, 2.8495°E)
Time: 06:41:28
(UTC+00:00)

O/OREOS (USA 219) - Visible Passes

Search period start: 03 December 2023 00:00
Search period end: 13 December 2023 00:00
Orbit: 621 x 646 km, 72.0° (Epoch: 22 May)

Date Brightness Start Highest point End Pass type
(mag) Time Alt. Az. Time Alt. Az. Time Alt. Az.
06 Dec ? 06:51:49 10° N 06:54:23 15° NE 06:56:56 10° ENE visible
09 Dec ? 06:18:29 10° N 06:21:16 16° NE 06:24:02 10° E visible
10 Dec ? 06:39:55 10° N 06:43:45 26° NE 06:47:35 10° ESE visible
11 Dec ? 05:24:47 10° NNE 05:25:29 10° NE 05:26:12 10° NE visible
12 Dec ? 05:45:10 10° N 05:48:08 17° NE 05:51:06 10° E visible
